Location: Newark
(54.3386°S, 169.8415°W)
Time: 04:47:54
(UTC+00:00)

Transit 2A Rocket - Pass Details

Date: 27 October 2019
Orbit: 594 x 909 km, 66.7° (Epoch: 11 November)

Event Time Altitude Azimuth Distance (km) Brightness Sun altitude
Rises 06:12:45 0° 259° (W) 3,402 10.7 0.5°
Reaches altitude 10° 06:15:34 10° 246° (WSW) 2,515 10.1 0.1°
Maximum altitude 06:20:29 27° 189° (S) 1,682 7.2 -0.5°
Drops below altitude 10° 06:25:35 10° 133° (SE) 2,619 7.5 -1.2°
Sets 06:28:35 0° 121° (ESE) 3,570 8.1 -1.6°
